Location: Boxberger West Oil Field
(38.7083°N, 98.9720°W)
Time: 15:24:44
(UTC+00:00)

Daily predictions for brighter satellites

Satellite Brightness Start Highest point End
(mag) Time Altitude Azimuth Time Altitude Azimuth Time Altitude Azimuth
Geosat 3.9 12:02:22 10° SSE 12:07:20 67° WSW 12:10:44 21° NW
Cosmos 1869 Rocket 3.6 12:05:17 10° S 12:09:35 76° E 12:13:55 10° N
BREEZE-M DEB (TANK) 4.2 12:13:32 16° SW 12:13:32 16° SW 12:15:26 10° S
FALCON 9 DEB 4.4 12:14:55 17° NNE 12:15:19 18° NNE 12:17:03 10° E
Cosmos 1954 Rocket 3.9 12:10:34 12° NNW 12:15:31 82° WSW 12:20:48 10° SSE
Meteor 1-18 Rocket 4.5 12:10:26 10° N 12:15:59 70° E 12:21:31 10° SSE
CZ-4B DEB 4.1 12:11:02 10° N 12:16:31 68° WNW 12:22:00 10° SSW
Cosmos 1420 Rocket 3.9 12:12:12 10° SSW 12:17:22 65° WNW 12:22:33 10° NNE
PSLV R/B 2.7 12:19:53 47° N 12:19:56 47° N 12:22:19 10° ENE
FALCON 9 R/B 4.3 12:13:42 18° WSW 12:20:05 74° S 12:52:35 10° E
Cosmos 2263 Rocket 2.1 12:16:01 10° SSW 12:21:34 68° WNW 12:27:08 10° NNE
FALCON 9 DEB 4.2 12:21:01 18° N 12:21:43 20° NNE 12:23:35 10° E
SJ-12 4.2 12:18:06 10° N 12:22:01 42° WNW 12:25:53 10° SW
Cosmos 1346 Rocket 3.2 12:20:35 10° S 12:24:23 63° E 12:28:13 10° NNE
DELTA 2 R/B(2) 4.5 12:24:57 24° S 12:24:57 24° S 12:26:20 10° SE
BREEZE-M DEB (TANK) 4.2 12:19:56 17° W 12:26:26 37° NNW 12:29:54 10° NE
SKYMED 2 4.0 12:23:01 10° SSW 12:27:05 39° W 12:30:38 13° NNW
Cosmos 2026 Rocket 3.9 12:21:55 10° N 12:28:05 81° W 12:34:21 10° S
SL-23 DEB 3.2 12:27:58 17° WSW 12:30:20 63° NW 12:33:31 10° NE
Cosmos 2279 Rocket 4.1 12:28:15 10° S 12:34:26 85° E 12:40:41 10° N
Cosmos 1634 Rocket 4.1 12:34:20 10° SSW 12:40:22 52° W 12:46:24 10° N
H-2A R/B 3.6 12:37:31 10° NNE 12:41:10 52° E 12:44:51 10° S
SL-24 R/B 4.2 12:36:52 10° SSE 12:41:34 85° ENE 12:45:51 10° N
Cosmos 1452 Rocket 3.7 12:38:26 10° SW 12:43:31 49° WNW 12:48:39 10° N
STARLINK 1055 4.5 12:42:38 11° NNW 12:45:33 32° NNE 12:48:42 10° E
STARLINK 1022 4.4 12:44:39 11° NNW 12:47:39 34° NE 12:50:50 10° E
CZ-4B R/B 3.4 12:43:27 10° N 12:48:54 54° WNW 12:54:22 10° SSW
Meteor 1-14 Rocket 4.5 12:43:45 10° SSW 12:49:30 54° WNW 12:55:23 10° N
Cosmos 1655 Rocket 4.3 12:43:23 10° N 12:49:37 71° E 12:55:48 10° SSE
FENGYUN 3A 4.1 12:45:38 10° N 12:50:33 37° WNW 12:55:26 10° SW
Starlink Launch 2 leader 3.0 12:48:45 14° NW 12:50:41 45° NE 12:53:03 10° ESE
STARLINK 1042 4.3 12:47:56 10° NW 12:51:05 36° NE 12:54:18 10° ESE
NOAA 6 4.3 12:46:16 10° N 12:51:10 47° WNW 12:56:02 10° SW
Cosmos 1850 Rocket 4.1 12:47:58 10° NNW 12:53:21 88° ENE 12:58:40 10° SSE
Okean 1-7 3.8 12:49:29 10° NNW 12:53:24 31° W 12:57:16 10° SSW
STARLINK 1056 4.2 12:50:44 10° NW 12:54:00 38° NE 12:57:15 10° ESE
Starlink Launch 2 trailer 2.8 12:52:17 13° NW 12:54:22 51° NE 12:56:46 10° ESE
Cosmos 1844 Rocket 3.9 12:50:19 10° S 12:55:37 46° ESE 13:00:55 10° NE
STARLINK 1054 4.1 12:53:37 10° NW 12:56:55 40° NE 13:00:12 10° ESE
STARLINK 1062 4.0 12:56:20 10° NW 12:59:39 42° NE 13:02:58 10° ESE
Okean 1 4.0 12:58:56 10° NNW 13:02:30 33° W 13:06:04 10° SSW
Orbus 7S? 2.6 12:59:53 10° WSW 13:02:45 48° NW 13:05:11 10° NNE
STARLINK 1053 3.9 12:59:27 10° NW 13:02:48 45° NE 13:06:08 10° ESE
Cosmos 1461 4.0 12:59:35 10° NW 13:03:20 30° WSW 13:07:12 10° S
STARLINK 1027 3.4 13:01:39 10° NW 13:04:31 48° NE 13:07:22 10° ESE
STARLINK 1028 3.4 13:01:54 10° NW 13:04:45 48° NE 13:07:36 10° ESE
STARLINK 1021 3.4 13:02:07 10° NW 13:04:58 48° NE 13:07:50 10° ESE
STARLINK 1019 3.4 13:02:18 10° NW 13:05:12 49° NE 13:08:05 10° ESE
STARLINK 1061 3.9 13:02:02 10° NW 13:05:24 48° NE 13:08:45 10° ESE
STARLINK 1012 3.4 13:02:33 10° NW 13:05:25 49° NE 13:08:16 10° ESE
STARLINK 1010 3.4 13:02:47 10° NW 13:05:39 49° NE 13:08:30 10° ESE
STARLINK 1034 3.4 13:02:43 10° NW 13:05:39 50° NE 13:08:33 10° ESE
Cosmos 371 Rocket 3.4 13:00:49 10° SSW 13:05:39 88° ESE 13:10:31 10° NNE
STARLINK 1026 3.3 13:03:02 10° NW 13:05:53 50° NE 13:08:44 10° ESE
Cosmos 1943 3.5 13:00:32 10° NW 13:05:55 48° WSW 13:11:16 10° S
STARLINK 1013 3.3 13:03:15 10° NW 13:06:06 50° NE 13:08:57 10° ESE
STARLINK 1009 3.3 13:03:27 10° NW 13:06:19 50° NE 13:09:11 10° ESE
STARLINK 1015 3.3 13:03:41 10° NW 13:06:33 51° NE 13:09:25 10° ESE
STARLINK 1016 3.3 13:03:54 10° NW 13:06:47 51° NE 13:09:39 10° ESE
STARLINK 1052 3.3 13:04:06 10° NW 13:07:00 51° NE 13:09:52 10° ESE
STARLINK 1008 3.3 13:04:08 10° NW 13:07:00 51° NE 13:09:51 10° ESE
STARLINK 1014 3.3 13:04:22 10° NW 13:07:14 52° NE 13:10:05 10° ESE
STARLINK 1025 3.3 13:04:36 10° NW 13:07:28 52° NE 13:10:20 10° ESE
STARLINK 1017 3.3 13:04:44 10° NW 13:07:37 52° NE 13:10:29 10° ESE
STARLINK 1023 3.3 13:05:01 10° NW 13:07:55 52° NE 13:10:46 10° ESE
STARLINK 1007 3.3 13:05:15 10° NW 13:08:08 53° NE 13:10:59 10° ESE
STARLINK 1067 3.8 13:04:55 10° NW 13:08:19 51° NE 13:11:41 10° ESE
STARLINK 1048 3.2 13:05:29 10° NW 13:08:21 53° NE 13:11:13 10° ESE
STARLINK 1049 3.2 13:05:42 10° NW 13:08:35 53° NE 13:11:27 10° ESE
STARLINK 1051 3.2 13:05:55 10° NW 13:08:49 54° NE 13:11:41 10° ESE
STARLINK 1037 3.2 13:06:08 10° NW 13:09:02 54° NE 13:11:54 10° ESE
STARLINK 1059 3.2 13:06:22 10° NW 13:09:15 55° NE 13:12:08 10° ESE
STARLINK 1057 3.2 13:06:36 10° NW 13:09:29 55° NE 13:12:22 10° ESE
Helios 1A Rocket 4.0 13:06:27 10° NNW 13:09:39 23° WNW 13:12:51 10° WSW
STARLINK 1040 3.1 13:06:50 10° NW 13:09:44 60° NE 13:12:38 10° ESE
STARLINK 1068 3.2 13:07:02 10° NW 13:09:56 56° NE 13:12:49 10° ESE
STARLINK 1029 3.2 13:07:16 10° NW 13:10:10 56° NE 13:13:02 10° ESE
STARLINK 1060 3.2 13:07:29 10° NW 13:10:23 56° NE 13:13:16 10° ESE
STARLINK 1030 3.2 13:07:40 10° NW 13:10:36 57° NE 13:13:32 10° ESE
STARLINK 1020 3.1 13:07:56 10° NW 13:10:50 57° NE 13:13:43 10° ESE
STARLINK 1058 3.7 13:07:43 10° NW 13:11:09 54° NE 13:14:32 10° ESE
STARLINK 1033 3.1 13:08:36 10° NW 13:11:30 58° NE 13:14:23 10° ESE
STARLINK 1031 3.1 13:08:50 10° NW 13:11:44 58° NE 13:14:37 10° ESE
Radarsat Rocket 4.3 13:05:44 10° N 13:11:47 58° WNW 13:18:34 10° SSW
STARLINK 1024 3.1 13:09:01 10° NW 13:11:57 59° NE 13:14:52 10° ESE
STARLINK 1035 3.1 13:09:17 10° NW 13:12:11 59° NE 13:15:04 10° ESE
STARLINK 1032 3.1 13:09:31 10° NW 13:12:25 60° NE 13:15:18 10° ESE
STARLINK 1011 3.1 13:09:41 10° NW 13:12:38 60° NE 13:15:33 10° ESE
STARLINK 1036 3.1 13:09:57 10° NW 13:12:51 60° NE 13:15:44 10° ESE
STARLINK 1047 3.0 13:10:24 10° NW 13:13:18 61° NE 13:16:12 10° ESE
SMAP 3.0 13:08:49 10° N 13:13:26 68° WNW 13:18:03 10° SSW
Cosmos 2221 Rocket 3.9 13:09:17 10° NNW 13:13:31 47° W 13:17:43 10° SSW
STARLINK 1043 3.6 13:10:35 10° NW 13:14:01 58° NE 13:17:26 10° ESE
BREEZE-M DEB 4.5 13:13:20 10° WNW 13:17:58 31° SW 13:21:35 10° SSE
BREEZE-M DEB (TANK) 3.8 23:17:23 10° SW 23:21:15 80° SE 23:36:05 10° ENE
Cosmos 1634 Rocket 4.5 23:31:37 10° NNW 23:37:45 67° W 23:43:53 10° S
Feng Yun 1-1 Rocket 4.4 23:34:16 10° SE 23:39:24 47° ENE 23:44:34 10° N
PSLV R/B 3.9 23:35:37 10° NNE 23:39:47 78° ESE 23:43:53 10° S
Cosmos 1980 4.1 23:34:42 10° S 23:40:00 44° ESE 23:45:19 10° NE
Radarsat Rocket 4.2 23:35:21 10° SSE 23:41:44 82° WSW 23:47:39 10° NNW
ATLAS 2AS CENTAUR R/B 4.3 23:35:28 10° WSW 23:42:39 36° NW 23:49:55 10° NNE
SL-4 R/B 3.4 23:40:05 10° W 23:43:11 25° NNW 23:46:30 10° NNE
STARLINK-60 3.9 23:41:33 10° SSW 23:44:40 36° SE 23:47:48 10° ENE
IRS-1C Rocket 4.2 23:40:09 10° SSE 23:45:19 59° ENE 23:50:29 10° N
Nadezhda 4 Rocket 4.3 23:41:41 10° SSE 23:47:44 50° E 23:53:49 10° NNE
Cosmos 1733 Rocket 3.3 23:44:52 10° N 23:49:08 48° E 23:53:23 10° SSE
CZ-4B R/B 4.4 23:51:24 10° NW 23:53:11 13° WNW 23:54:57 10° W
Cosmos 1666 4.0 23:54:27 10° NNE 23:57:05 18° ENE 23:59:43 10° ESE
